Wheaton NDB, MN

7:30 AM CDT on March 25, 2017 (GMT -0500)
Wheaton Municipal

Weather History for KETH - March, 2014

Change the Weather History Date:

Sunday, March 30, 2014

  Actual Average Record
Temperature  
Mean Temperature 46 °F -  
Max Temperature 62 °F 48 °F 80 °F (1967)
Min Temperature 30 °F 27 °F -8 °F (1969)
Degree Days  
Heating Degree Days 19    
Moisture  
Dew Point 37 °F    
Average Humidity 71    
Maximum Humidity 100    
Minimum Humidity 48    
Precipitation  
Precipitation 0.00 in - - ()
Sea Level Pressure  
Sea Level Pressure 29.79 in    
Wind  
Wind Speed 10 mph (ENE)    
Max Wind Speed 15 mph    
Max Gust Speed 18 mph    
Visibility 9 miles    
Events      
Averages and records for this station are not official NWS values.
T = Trace of Precipitation, MM = Missing Value Source: NWS Daily Summary

Daily Weather History Graph

Daily Weather History Graph

Search for Another Location

Airport or City:

Trip Planner

Search our weather history database for the weather conditions in past years. The results will help you decide how hot, cold, wet, or windy it might be!

Date:

Astronomy

Mar. 30, 2014 Rise Set
Actual Time 7:09 AM CDT 7:51 PM CDT
Civil Twilight 6:39 AM CDT 8:22 PM CDT
Nautical Twilight 6:04 AM CDT 8:57 PM CDT
Astronomical Twilight 5:27 AM CDT 9:35 PM CDT
Moon 6:56 AM CDT (3/30) 8:07 PM CDT (3/30)
Length of Visible Light 13h 42m
Length of Day
12h 42m
Waning Crescent, 0% of the Moon is Illuminated
Mar 30
Waning Crescent
Mar 30
New
Apr 7
First Quarter
Apr 15
Full
Apr 22
Last Quarter

Hourly Weather History & Observations

Time (CDT) Temp. Windchill Dew Point Humidity Pressure Visibility Wind Dir Wind Speed Gust Speed Precip Events Conditions
12:14 AM 39.2 °F 30.8 °F 33.8 °F 81% 29.82 in 10.0 mi SE 15.0 mph - N/A   Clear
12:34 AM 39.2 °F 30.8 °F 33.8 °F 81% 29.82 in 10.0 mi SE 15.0 mph - N/A   Clear
12:54 AM 39.2 °F 31.2 °F 33.8 °F 81% 29.81 in 10.0 mi SE 13.8 mph - N/A   Clear
1:14 AM 39.2 °F 31.2 °F 33.8 °F 81% 29.80 in 10.0 mi SE 13.8 mph - N/A   Clear
1:34 AM 39.2 °F 30.8 °F 33.8 °F 81% 29.78 in 10.0 mi SE 15.0 mph - N/A   Clear
1:54 AM 37.4 °F 29.3 °F 33.8 °F 87% 29.78 in 10.0 mi SE 12.7 mph - N/A   Clear
2:14 AM 37.4 °F 30.3 °F 33.8 °F 87% 29.77 in 10.0 mi ESE 10.4 mph - N/A   Clear
2:34 AM 35.6 °F 27.1 °F 33.8 °F 93% 29.76 in 10.0 mi ESE 12.7 mph - N/A   Clear
2:37 AM 35.6 °F 27.5 °F 33.8 °F 93% 29.76 in 10.0 mi ESE 11.5 mph - N/A   Clear
3:34 AM 35.6 °F 27.1 °F 32.0 °F 87% 29.75 in 10.0 mi ESE 12.7 mph - N/A   Clear
3:54 AM 33.8 °F 24.8 °F 32.0 °F 93% 29.75 in 7.0 mi ESE 12.7 mph - N/A   Clear
4:14 AM 33.8 °F 25.3 °F 30.2 °F 87% 29.75 in 7.0 mi SE 11.5 mph - N/A   Clear
4:34 AM 33.8 °F 26.4 °F 30.2 °F 87% 29.77 in 7.0 mi ESE 9.2 mph - N/A   Clear
4:54 AM 33.8 °F 28.6 °F 30.2 °F 87% 29.77 in 7.0 mi East 5.8 mph - N/A   Clear
5:14 AM 33.8 °F 27.7 °F 30.2 °F 87% 29.78 in 7.0 mi ESE 6.9 mph - N/A   Clear
5:34 AM 32.0 °F 24.8 °F 30.2 °F 93% 29.78 in 7.0 mi ESE 8.1 mph - N/A   Clear
5:54 AM 32.0 °F 24.2 °F 30.2 °F 93% 29.78 in 5.0 mi ESE 9.2 mph - N/A   Clear
6:14 AM 30.2 °F 22.6 °F 30.2 °F 100% 29.78 in 5.0 mi ESE 8.1 mph - N/A   Clear
6:34 AM 30.2 °F 23.4 °F 28.4 °F 93% 29.79 in 5.0 mi SE 6.9 mph - N/A   Clear
6:54 AM 30.2 °F 24.3 °F 28.4 °F 93% 29.78 in 7.0 mi SE 5.8 mph - N/A   Clear
7:14 AM 32.0 °F 25.6 °F 30.2 °F 93% 29.78 in 5.0 mi SE 6.9 mph - N/A   Clear
7:34 AM 33.8 °F 29.6 °F 32.0 °F 93% 29.80 in 7.0 mi SSE 4.6 mph - N/A   Clear
7:54 AM 35.6 °F 29.9 °F 33.8 °F 93% 29.79 in 7.0 mi SE 6.9 mph - N/A   Clear
8:14 AM 37.4 °F 32.8 °F 33.8 °F 87% 29.80 in 7.0 mi SSE 5.8 mph - N/A   Clear
8:34 AM 37.4 °F 34.9 °F 35.6 °F 93% 29.81 in 7.0 mi WNW 3.5 mph - N/A   Clear
8:54 AM 39.2 °F - 35.6 °F 87% 29.81 in 7.0 mi Calm Calm - N/A   Clear
9:14 AM 39.2 °F - 35.6 °F 87% 29.80 in 10.0 mi Calm Calm - N/A   Clear
9:34 AM 42.8 °F - 37.4 °F 81% 29.81 in 10.0 mi Calm Calm - N/A   Clear
9:54 AM 44.6 °F - 37.4 °F 76% 29.81 in 10.0 mi Calm Calm - N/A   Clear
10:14 AM 46.4 °F - 37.4 °F 71% 29.81 in 10.0 mi Calm Calm - N/A   Clear
10:34 AM 48.2 °F - 37.4 °F 66% 29.82 in 10.0 mi Calm Calm - N/A   Clear
10:54 AM 51.8 °F - 37.4 °F 58% 29.82 in 10.0 mi NNW 3.5 mph - N/A   Clear
11:14 AM 51.8 °F - 37.4 °F 58% 29.83 in 10.0 mi Calm Calm - N/A   Clear
11:34 AM 53.6 °F - 37.4 °F 54% 29.83 in 10.0 mi Calm Calm - N/A   Clear
11:54 AM 55.4 °F - 37.4 °F 51% 29.82 in 10.0 mi North 4.6 mph - N/A   Clear
12:14 PM 55.4 °F - 37.4 °F 51% 29.82 in 10.0 mi NW 4.6 mph - N/A   Clear
12:34 PM 57.2 °F - 39.2 °F 51% 29.83 in 10.0 mi North 4.6 mph - N/A   Clear
12:54 PM 57.2 °F - 39.2 °F 51% 29.83 in 10.0 mi NE 3.5 mph - N/A   Clear
1:14 PM 60.8 °F - 41.0 °F 48% 29.82 in 10.0 mi NNE 8.1 mph - N/A   Clear
1:34 PM 60.8 °F - 41.0 °F 48% 29.81 in 10.0 mi NNE 5.8 mph - N/A   Clear
1:54 PM 60.8 °F - 42.8 °F 52% 29.80 in 10.0 mi NE 8.1 mph 16.1 mph N/A   Clear
2:14 PM 60.8 °F - 42.8 °F 52% 29.79 in 10.0 mi ENE 10.4 mph 16.1 mph N/A   Clear
2:34 PM 62.6 °F - 42.8 °F 48% 29.80 in 10.0 mi NE 9.2 mph - N/A   Clear
2:54 PM 60.8 °F - 42.8 °F 52% 29.79 in 10.0 mi NE 8.1 mph - N/A   Clear
3:14 PM 62.6 °F - 42.8 °F 48% 29.78 in 10.0 mi ENE 10.4 mph - N/A   Clear
3:34 PM 62.6 °F - 42.8 °F 48% 29.77 in 10.0 mi ENE 12.7 mph - N/A   Clear
3:54 PM 62.6 °F - 42.8 °F 48% 29.77 in 10.0 mi ENE 13.8 mph - N/A   Clear
4:14 PM 62.6 °F - 42.8 °F 48% 29.78 in 10.0 mi ENE 12.7 mph 18.4 mph N/A   Clear
4:34 PM 62.6 °F - 42.8 °F 48% 29.77 in 10.0 mi East 11.5 mph - N/A   Clear
4:54 PM 62.6 °F - 42.8 °F 48% 29.77 in 10.0 mi East 15.0 mph - N/A   Clear
5:14 PM 62.6 °F - 42.8 °F 48% 29.76 in 10.0 mi East 13.8 mph - N/A   Clear
5:34 PM 60.8 °F - 42.8 °F 52% 29.76 in 10.0 mi East 12.7 mph - N/A   Clear
5:54 PM 59.0 °F - 42.8 °F 55% 29.77 in 10.0 mi East 12.7 mph - N/A   Clear
6:14 PM 57.2 °F - 42.8 °F 59% 29.78 in 10.0 mi East 12.7 mph - N/A   Clear
6:34 PM 57.2 °F - 41.0 °F 55% 29.78 in 10.0 mi ENE 11.5 mph - N/A   Clear
6:54 PM 55.4 °F - 42.8 °F 63% 29.78 in 10.0 mi ENE 12.7 mph - N/A   Clear
7:14 PM 53.6 °F - 41.0 °F 62% 29.78 in 10.0 mi NE 8.1 mph - N/A   Clear
7:34 PM 51.8 °F - 39.2 °F 62% 29.79 in 10.0 mi ENE 8.1 mph - N/A   Clear
7:54 PM 51.8 °F - 39.2 °F 62% 29.79 in 10.0 mi ENE 8.1 mph - N/A   Clear
8:14 PM 50.0 °F - 39.2 °F 66% 29.80 in 10.0 mi ENE 9.2 mph - N/A   Clear
8:34 PM 48.2 °F - 39.2 °F 71% 29.79 in 10.0 mi NE 9.2 mph - N/A   Clear
8:54 PM 48.2 °F - 37.4 °F 66% 29.78 in 10.0 mi NE 11.5 mph 17.3 mph N/A   Clear
9:14 PM 48.2 °F - 37.4 °F 66% 29.80 in 10.0 mi NE 5.8 mph - N/A   Clear
9:34 PM 46.4 °F 42.9 °F 37.4 °F 71% 29.79 in 10.0 mi North 6.9 mph - N/A   Clear
9:54 PM 42.8 °F 38.6 °F 35.6 °F 76% 29.79 in 10.0 mi North 6.9 mph - N/A   Clear
10:14 PM 42.8 °F 38.6 °F 35.6 °F 76% 29.79 in 10.0 mi NNW 6.9 mph - N/A   Clear
10:34 PM 42.8 °F 38.0 °F 35.6 °F 76% 29.77 in 10.0 mi North 8.1 mph - N/A   Clear
10:54 PM 41.0 °F 36.4 °F 35.6 °F 81% 29.77 in 10.0 mi North 6.9 mph - N/A   Clear
11:14 PM 41.0 °F 39.0 °F 35.6 °F 81% 29.77 in 10.0 mi NNW 3.5 mph - N/A   Clear
11:34 PM 41.0 °F 37.1 °F 35.6 °F 81% 29.76 in 10.0 mi NNW 5.8 mph - N/A   Clear
11:54 PM 39.2 °F 35.0 °F 35.6 °F 87% 29.76 in 10.0 mi NNW 5.8 mph - N/A   Clear